www.pogodaiklimat.ru

Погода и климат >> Архив погоды >> Норвегия >> Намсос аэропорт


ПОГОДА в Намсос аэропорту

  • Прогноз погоды в Намсос аэропорту
  • Монитор погоды в Намсос аэропорту

АРХИВ ПОГОДЫ в Намсос аэропорту

Время (UTC), дата Ветер
(напр.,м/с)
 
Видим.   Явления Облачность Т
(С)
Тd
(С)
f
(%)
Тe
(С)
Тes
(С)
Комфортность P
(гПа)
Po
(гПа)
Тmin
(С)
Tmax
(С)
R
(мм)
R24
(мм)
S
(см)
10 10.08 В 9
{14}
н/о н/о +22.0 +13.1 57 +25 +25 комфорт 1003.5 1003.2
11 10.08 В 9
{16}
н/о н/о +22.4 +12.9 55 +25 +25 комфорт 1003.0 1002.7
12 10.08 В 7
{16}
н/о н/о +22.1 +12.9 56 +25 +25 комфорт 1002.9 1002.6
13 10.08 ЮВ 5
{11}
н/о н/о +21.7 +12.0 54 +24 +24 комфорт 1002.8 1002.5
14 10.08 В 6
{10}
н/о н/о +21.0 +12.4 58 +23 +23 комфорт 1002.9 1002.6
15 10.08 В 6
{9}
н/о н/о +19.0 +14.1 73 +20 +20 1002.5 1002.2
16 10.08 СВ 8
{12}
н/о н/о +18.5 +14.0 75 +18 +18 1001.8 1001.6
17 10.08 В 8
{13}
н/о н/о +18.4 +13.3 72 +18 +18 1001.7 1001.4
18 10.08 В 6
{13}
н/о н/о +18.5 +12.7 69 +19 +19 1001.5 1001.3 +17.2 +22.6
19 10.08 СВ 7
{11}
н/о н/о +18.4 +12.6 69 +18 +18 1001.3 1001.0
20 10.08 В 7
{10}
н/о н/о +18.2 +12.2 68 +18 +18 1001.1 1000.8
21 10.08 В 7
{10}
н/о н/о +17.8 +11.6 67 +17 +17 1000.6 1000.3
22 10.08 В 5
{11}
н/о н/о +17.1 +11.6 70 +16 +16 1000.6 1000.3
23 10.08 В 5
{8}
н/о н/о +16.2 +11.4 73 +15 +15 1000.4 1000.1
00 11.08 СВ 5
{11}
н/о н/о +15.6 +11.4 76 +14 +14 1000.0 999.7
01 11.08 В 6
{9}
н/о н/о +17.0 +11.9 72 +16 +16 999.3 999.0
02 11.08 В 8
{13}
н/о н/о +18.5 +12.3 67 +18 +18 998.6 998.3
03 11.08 В 7
{13}
н/о н/о +18.2 +12.4 69 +18 +18 998.6 998.3
04 11.08 В 8
{12}
н/о н/о +18.2 +12.7 70 +18 +18 998.4 998.1
05 11.08 В 11
{15}
н/о н/о +18.3 +12.7 70 +17 +17 998.0 997.7
06 11.08 В 10
{15}
н/о н/о +18.5 +12.7 69 +18 +18 998.3 998.0 +15.4 +18.6
07 11.08 В 8
{14}
н/о н/о +18.6 +12.8 69 +18 +18 998.0 997.7
08 11.08 В 7
{14}
н/о н/о +19.0 +13.4 70 +19 +19 997.9 997.6
09 11.08 В 6
{12}
н/о н/о +18.7 +14.4 76 +19 +19 998.1 997.8
10 11.08 В 7
{11}
н/о н/о +18.4 +14.7 79 +18 +18 998.0 997.7
11 11.08 В 7
{11}
н/о н/о +19.7 +14.3 71 +21 +21 комфорт 997.9 997.6
12 11.08 В 7
{14}
н/о н/о +22.0 +14.6 63 +25 +25 комфорт 997.7 997.4
13 11.08 В 9
{13}
н/о н/о +21.3 +13.5 61 +24 +24 комфорт 997.4 997.2
14 11.08 В 7
{12}
н/о н/о +22.1 +14.2 61 +25 +25 комфорт 997.3 997.0
15 11.08 В 6 н/о н/о +23.4 +14.9 59 +27 +27 душно 997.2 996.9
16 11.08 В 6
{11}
н/о н/о +23.5 +13.9 55 +26 +26 жарко 997.2 997.0
17 11.08 В 4
{10}
н/о н/о +21.9 +14.1 61 +25 +25 комфорт 997.4 997.1
18 11.08 В 4
{13}
н/о н/о +20.9 +14.6 67 +24 +24 комфорт 997.7 997.5 +18.1 +24.0
19 11.08 В 6
{8}
н/о н/о +20.7 +14.4 67 +23 +23 комфорт 997.8 997.6
20 11.08 В 6
{8}
н/о н/о +19.7 +14.1 70 +21 +21 комфорт 998.3 998.0
21 11.08 В 6
{8}
н/о н/о +19.0 +14.5 75 +20 +20 998.7 998.4
22 11.08 СВ 3
{6}
н/о н/о +17.0 +15.7 92 +17 +17 999.0 998.7
23 11.08 С 2
{5}
н/о н/о +17.2 +15.4 89 +18 +18 999.3 999.0
00 12.08 С 2
{8}
н/о н/о +17.1 +15.3 89 +17 +17 999.4 999.1
01 12.08 СВ 2
{3}
н/о н/о +17.4 +14.9 85 +18 +18 999.3 999.0
02 12.08 СВ 3
{4}
н/о н/о +16.0 +14.9 93 +15 +15 999.3 999.0
03 12.08 СВ 2
{4}
н/о н/о +15.5 +14.7 95 +15 +15 999.3 999.0
04 12.08 ЮВ 1
{3}
н/о н/о +15.4 +14.6 95 +16 +16 999.2 999.0
05 12.08 ЮЗ 2
{2}
н/о н/о +15.5 +15.0 97 +15 +15 999.4 999.1
06 12.08 ЮЗ 2
{4}
н/о н/о +16.2 +15.6 96 +16 +16 999.2 998.9 +15.2 +21.1
07 12.08 ЮЗ 3
{4}
н/о н/о +15.9 +15.4 97 +15 +15 999.2 998.9
08 12.08 ЮЗ 2
{3}
н/о н/о +15.8 +15.3 97 +16 +16 999.4 999.1
09 12.08 ЮЗ 3
{4}
н/о н/о +15.3 +15.0 98 +15 +15 999.7 999.4
10 12.08 ЮЗ 3
{4}
н/о н/о +15.7 +15.4 98 +15 +15 999.7 999.4
11 12.08 СЗ 3
{4}
н/о н/о +15.5 +14.5 94 +15 +15 999.9 999.6
12 12.08 СЗ 3
{5}
н/о н/о +15.4 +14.3 93 +15 +15 1000.0 999.7
13 12.08 СЗ 4
{5}
н/о н/о +15.2 +14.4 95 +14 +14 1000.3 1000.0
14 12.08 СЗ 3
{5}
н/о н/о +15.3 +14.5 95 +15 +15 1000.6 1000.3
15 12.08 СЗ 1
{4}
н/о н/о +15.3 +14.5 95 +16 +16 1000.8 1000.5
16 12.08 З 3
{4}
н/о н/о +15.0 +14.2 95 +14 +14 1001.0 1000.7
17 12.08 ЮЗ 4
{6}
н/о н/о +14.8 +14.0 95 +14 +14 1001.1 1000.8
18 12.08 З 3
{6}
н/о н/о +14.6 +13.7 94 +14 +14 1001.4 1001.1 +14.6 +16.2
19 12.08 З 3
{5}
н/о н/о +14.4 +13.3 93 +13 +13 1001.7 1001.4
20 12.08 ЮЗ 4
{5}
н/о н/о +14.0 +13.2 95 +12 +12 1001.7 1001.5
21 12.08 ЮЗ 4
{6}
н/о н/о +13.6 +13.0 96 +12 +12 1002.0 1001.7
22 12.08 ЮЗ 4
{6}
н/о н/о +13.4 +12.8 96 +12 +12 1002.4 1002.1
23 12.08 ЮЗ 4
{6}
н/о н/о +13.4 +12.9 97 +12 +12 1002.3 1002.0
00 13.08 ЮЗ 4
{6}
н/о н/о +13.3 +12.7 96 +11 +11 1002.2 1001.9
01 13.08 ЮЗ 4
{6}
н/о н/о +13.2 +12.4 95 +11 +11 1002.1 1001.8
02 13.08 ЮЗ 4
{6}
н/о н/о +12.9 +12.4 97 +11 +11 1001.9 1001.6
03 13.08 ЮЗ 4
{5}
н/о н/о +12.9 +12.4 97 +11 +11 1001.8 1001.5
04 13.08 ЮЗ 4
{7}
н/о н/о +12.9 +12.3 96 +11 +11 1001.3 1001.0
05 13.08 ЮЗ 4
{6}
н/о н/о +12.8 +12.0 95 +11 +11 1001.1 1000.9
06 13.08 ЮЗ 4
{7}
н/о н/о +12.9 +11.8 93 +11 +11 1001.0 1000.8 +12.7 +14.6
07 13.08 Ю 5
{7}
н/о н/о +13.1 +11.8 92 +11 +11 1001.0 1000.8
08 13.08 Ю 5
{8}
н/о н/о +13.1 +12.0 93 +11 +11 1001.0 1000.7
09 13.08 Ю 4
{8}
н/о н/о +13.3 +11.7 90 +12 +12 1001.2 1000.9
10 13.08 Ю 4
{7}
н/о н/о +13.8 +12.4 91 +12 +12 1001.1 1000.8
11 13.08 ЮЗ 3
{6}
н/о н/о +14.8 +12.3 85 +14 +14 1001.2 1000.9
12 13.08 Ю 4
{8}
н/о н/о +15.2 +12.3 83 +14 +14 1001.1 1000.8
13 13.08 Ю 5
{8}
н/о н/о +14.3 +12.3 88 +13 +13 1001.4 1001.1
14 13.08 Ю 4
{6}
н/о н/о +14.5 +11.8 84 +13 +13 1001.5 1001.2
15 13.08 ЮЗ 4
{6}
н/о н/о +14.8 +11.8 82 +14 +14 1001.7 1001.4
16 13.08 ЮЗ 5
{7}
н/о н/о +14.3 +11.5 83 +13 +13 1001.9 1001.6
17 13.08 ЮЗ 5
{9}
н/о н/о +13.9 +11.1 83 +12 +12 1002.2 1001.9
18 13.08 Ю 4
{9}
н/о н/о +13.4 +10.6 83 +12 +12 1002.6 1002.3 +12.9 +15.4
19 13.08 ЮЗ 4
{7}
н/о н/о +12.8 +10.0 83 +11 +11 1002.9 1002.6
20 13.08 ЮЗ 5
{8}
н/о н/о +12.1 +9.8 86 +10 +10 1003.2 1002.9
21 13.08 Ю 4
{9}
н/о н/о +11.8 +8.8 82 +10 +10 1003.8 1003.5
22 13.08 Ю 4
{7}
н/о н/о +11.4 +8.8 84 +9 +9 1004.1 1003.8
23 13.08 Ю 6
{8}
н/о н/о +11.4 +8.6 83 +8 +8 1004.2 1003.9
00 14.08 Ю 5
{9}
н/о н/о +11.2 +9.0 86 +8 +8 1004.2 1003.9
01 14.08 Ю 5
{8}
н/о н/о +11.1 +8.9 86 +8 +8 1004.3 1004.0
02 14.08 Ю 4
{8}
н/о н/о +10.6 +9.2 91 +8 +8 1004.5 1004.2
03 14.08 Ю 4
{7}
н/о н/о +11.1 +8.7 85 +9 +9 1004.6 1004.3
04 14.08 Ю 4
{9}
н/о н/о +10.5 +8.8 89 +8 +8 1004.4 1004.1
05 14.08 Ю 7
{10}
н/о н/о +11.2 +8.3 82 +8 +8 1004.3 1004.0
06 14.08 Ю 4
{10}
н/о н/о +10.4 +9.0 91 +8 +8 1004.7 1004.4 +10.4 +13.4
07 14.08 ЮЗ 2
{6}
н/о н/о +10.5 +8.9 90 +9 +9 1004.9 1004.6
08 14.08 ЮЗ 2
{5}
н/о н/о +10.4 +9.6 95 +9 +9 1005.3 1005.0
09 14.08 ЮЗ 3
{4}
н/о н/о +11.6 +9.9 89 +10 +10 1005.3 1005.0
10 14.08 З 3
{5}
н/о н/о +11.8 +9.9 88 +10 +10 1005.6 1005.3
11 14.08 ЮЗ 2
{5}
н/о н/о +12.5 +9.9 84 +12 +12 1005.7 1005.4
12 14.08 ЮЗ 4
{6}
н/о н/о +13.4 +10.2 81 +12 +12 1005.9 1005.6
13 14.08 ЮЗ 3
{6}
н/о н/о +14.5 +9.7 73 +14 +14 1006.1 1005.8
14 14.08 З 3
{8}
н/о н/о +13.9 +10.3 79 +13 +13 1006.3 1006.0
15 14.08 ЮЗ 6
{8}
н/о н/о +15.1 +9.5 69 +14 +14 1006.5 1006.2
16 14.08 З 5
{9}
н/о н/о +12.0 +9.7 86 +10 +10 1007.0 1006.7
17 14.08 З 1
{7}
н/о н/о +12.5 +10.6 88 +12 +12 1006.9 1006.6
18 14.08 штиль 0
{9}
н/о н/о +12.4 +11.0 91 +12 +12 1007.0 1006.7 +10.2 +15.4
19 14.08 штиль 0
{2}
н/о н/о +12.0 +11.1 94 +11 +11 1007.2 1006.9
20 14.08 СВ 1
{2}
н/о н/о +10.2 +9.6 96 +10 +10 1007.4 1007.1
21 14.08 С 1
{2}
н/о н/о +9.6 +9.3 98 +9 +9 1007.7 1007.4
22 14.08 СВ 1
{2}
н/о н/о +9.5 +9.2 98 +9 +9 1007.8 1007.5
23 14.08 СВ 1
{2}
н/о н/о +8.1 +7.8 98 +7 +7 1008.0 1007.7
00 15.08 СВ 2
{2}
н/о н/о +7.5 +7.4 99 +5 +5 1008.2 1007.9
01 15.08 СВ 2
{3}
н/о н/о +7.3 +7.2 99 +5 +5 1008.3 1008.0
02 15.08 СВ 2
{3}
н/о н/о +7.6 +7.5 99 +5 +5 1008.3 1008.0
03 15.08 СВ 3
{4}
н/о н/о +7.5 +7.5 100 +4 +4 1008.3 1008.0
04 15.08 СВ 2
{4}
н/о н/о +7.7 +7.7 100 +5 +5 1008.3 1008.0
05 15.08 СВ 2
{3}
н/о н/о +8.3 +8.3 100 +6 +6 1008.5 1008.2
06 15.08 В 2
{4}
н/о н/о +9.0 +9.0 100 +7 +7 1008.7 1008.4 +7.2 +12.4
07 15.08 СВ 2
{3}
н/о н/о +9.9 +9.8 99 +8 +8 1008.6 1008.3
08 15.08 СВ 2
{4}
н/о н/о +12.4 +11.1 92 +11 +11 1008.5 1008.2
09 15.08 Ю 1
{3}
н/о н/о +15.2 +9.6 69 +16 +16 1008.3 1008.0
10 15.08 ЮЗ 3
{4}
н/о н/о +15.4 +7.5 59 +15 +15 1008.1 1007.8
11 15.08 З 1
{3}
н/о н/о +16.5 +7.2 54 +17 +17 1007.9 1007.6
12 15.08 ЮВ 2
{4}
н/о н/о +15.9 +6.9 55 +16 +16 1007.8 1007.5
13 15.08 Ю 1
{2}
н/о н/о +18.0 +8.8 55 +19 +19 1007.6 1007.3
14 15.08 Ю 2
{4}
н/о н/о +18.1 +8.9 55 +19 +19 1007.3 1007.0
15 15.08 СЗ 3
{5}
н/о н/о +17.4 +7.5 52 +17 +17 1007.0 1006.7
16 15.08 С 3
{5}
н/о н/о +17.4 +8.0 54 +17 +17 1006.7 1006.4
17 15.08
{5}
н/о н/о +17.0 +8.2 56 1006.5 1006.2
18 15.08 С 2
{5}
н/о н/о +15.8 +8.8 63 +16 +16 1006.2 1006.0 +9.0 +18.6
19 15.08 СВ 2
{3}
н/о н/о +13.7 +9.0 73 +13 +13 1006.0 1005.7
20 15.08 СВ 3
{5}
н/о н/о +12.9 +8.8 76 +12 +12 1005.9 1005.6
21 15.08 СВ 4
{5}
н/о н/о +11.9 +8.8 81 +10 +10 1005.6 1005.3
22 15.08 В 4
{7}
н/о н/о +12.1 +8.4 78 +10 +10 1005.2 1005.0
23 15.08 ЮВ 4
{7}
н/о н/о +13.4 +7.6 68 +12 +12 1005.0 1004.7
00 16.08 ЮВ 5
{7}
н/о н/о +13.4 +7.2 66 +12 +12 1004.7 1004.4
01 16.08 В 4
{7}
н/о н/о +13.1 +7.3 68 +11 +11 1004.2 1003.9
02 16.08 В 2
{7}
н/о н/о +11.1 +7.0 76 +10 +10 1004.1 1003.8
03 16.08 СВ 3
{5}
н/о н/о +10.4 +7.5 82 +8 +8 1003.8 1003.5
04 16.08 СВ 6
{8}
н/о н/о +10.2 +7.1 81 +7 +7 1003.2 1002.9
05 16.08 СВ 5
{8}
н/о н/о +11.4 +7.5 77 +9 +9 1003.3 1003.0
06 16.08 СВ 5
{8}
н/о н/о +12.8 +7.7 71 +11 +11 1003.4 1003.1 +9.4 +15.9
07 16.08 СВ 2
{6}
н/о н/о +14.2 +8.0 66 +14 +14 1003.8 1003.5
08 16.08 СВ 2
{3}
н/о н/о +14.1 +9.3 73 +14 +14 1004.4 1004.1
09 16.08 З 1
{2}
н/о н/о +14.2 +10.6 79 +15 +15 1004.9 1004.6
10 16.08 З 3
{5}
н/о н/о +12.5 +11.1 91 +11 +11 1005.9 1005.6
11 16.08 З 1
{2}
н/о н/о +13.0 +11.4 90 +13 +13 1006.4 1006.1
12 16.08 ЮЗ 3
{6}
н/о н/о +13.9 +10.5 80 +13 +13 1006.6 1006.4
13 16.08 ЮЗ 3
{4}
н/о н/о +15.0 +11.0 77 +14 +14 1006.6 1006.3
14 16.08 Ю 2
{4}
н/о н/о +15.4 +9.8 69 +15 +15 1006.6 1006.4
15 16.08 Ю 1
{2}
н/о н/о +16.6 +9.8 64 +18 +18 1006.5 1006.2
16 16.08 ЮЗ 1
{2}
н/о н/о +16.9 +9.3 61 +18 +18 1006.2 1005.9
17 16.08 В 2
{4}
н/о н/о +15.7 +10.0 69 +16 +16 1006.0 1005.8
18 16.08 СЗ 2
{4}
н/о н/о +14.5 +10.1 75 +14 +14 1005.8 1005.5 +12.4 +17.2
19 16.08 СВ 1
{3}
н/о н/о +12.5 +10.1 85 +12 +12 1005.7 1005.4
20 16.08 СВ 1
{3}
н/о н/о +11.3 +9.7 90 +11 +11 1005.6 1005.3
21 16.08 СВ 2
{3}
н/о н/о +10.9 +10.1 95 +9 +9 1005.5 1005.2
22 16.08 СВ 2
{3}
н/о н/о +11.2 +10.3 94 +10 +10 1005.3 1005.1
23 16.08 СВ 2
{3}
н/о н/о +11.1 +10.6 97 +10 +10 1004.9 1004.6
00 17.08 СВ 3
{4}
н/о н/о +11.5 +11.0 97 +10 +10 1004.5 1004.2
01 17.08 СВ 5
{7}
н/о н/о +11.6 +11.0 96 +9 +9 1003.8 1003.5
02 17.08 СВ 5
{7}
н/о н/о +11.8 +11.0 95 +9 +9 1003.4 1003.1
03 17.08 СВ 6
{8}
н/о н/о +12.1 +11.2 94 +9 +9 1002.5 1002.2
04 17.08 СВ 5
{8}
н/о н/о +12.4 +11.3 93 +10 +10 1001.8 1001.5
05 17.08 СВ 4
{6}
н/о н/о +12.7 +11.8 94 +11 +11 1001.3 1001.0
06 17.08 СВ 4
{8}
н/о н/о +13.3 +12.0 92 +12 +12 1000.6 1000.3 +10.4 +14.5
07 17.08 В 5
{8}
н/о н/о +14.9 +12.2 84 +13 +13 1000.1 999.8
08 17.08 В 6
{8}
н/о н/о +15.8 +13.3 85 +14 +14 999.3 999.1
09 17.08 В 6
{9}
н/о н/о +17.1 +14.0 82 +16 +16 998.9 998.6
10 17.08 В 5
{8}
н/о н/о +18.3 +13.6 74 +18 +18 998.5 998.2

 

Местоположение метеостанции Намсос аэропорт (Норвегия): широта 64.47 долгота 11.57 высота над уровнем моря 2 м.

В архиве по умолчанию представлена погода в Намсос аэропорту за последнюю неделю. Архивные данные за месяц целиком и за предыдущие месяцы, начиная с января 2011 года, Вы можете получить, выбрав интересующий диапазон дат из раскрывающегося списка и нажав кнопку "Ввод!".


*Определитесь, кто Вы:
робот инопланетянин человек

Внимание! Время в таблицах - всемирное. Для получения местного времени необходимо прибавить поправку, которая равна 1 ч.

Смотрите также архив погоды в соседних городах и на ближайших метеорологических станциях:

Погода в Гартлэнде (Норвегия) (39 км)
Погода в Рорвик аэропорту (Норвегия) (45 км)
Погода в Стейнхьере (Норвегия) (50 км)
Погода на Маяке Buholmrasa (Норвегия) (54 км)
Погода в Снаса-Кжевя (Норвегия) (55 км)
Погода на Маяке Nordoyan (Норвегия) (61 км)
Погода в Намсскугане (Норвегия) (68 км)
Погода на Маяке Sklinna (Норвегия) (86 км)
Погода на Сомна-Квалёйа (Норвегия) (86 км)
Погода в Офьорде (Норвегия) (86 км)

Пояснения к столбцам:

Ветер - указаны скорость ветра в м/с - средняя за 10 мин, порывы в срок и между сроками (в фигурных скобках) и направление, откуда дует ветер: С - северный, СВ - северо-восточный, В - восточный, ЮВ - юго-восточный, Ю - южный, ЮЗ - юго-западный, З - западный, СЗ - северо-западный.
Видимость - горизонтальная дальность видимости в метрах или километрах. При видимости от 1 до 10 км при отсутствии осадков обычно наблюдается дымка, при ухудшении видимости до 1 км и менее - туман. В сухую погоду видимость может ухудшаться дымом, пылью или мглою.
Явления - указаны атмосферные явления, наблюдавшиеся в срок или в последний час перед сроком; фигурными скобками обозначены явления, наблюдавшиеся между сроками (за 1-3 часа до срока); квадратными скобками обозначены град или гололедные отложения с указанием их диаметра в мм.
Облачность - указаны через наклонную черту общая и нижняя облачность в баллах и высота нижней границы облаков в метрах; квадратными скобками обозначены формы облаков: Ci - перистые, Cs - перисто-слоистые, Cc - перисто-кучевые, Ac - высококучевые, As - высокослоистые, Sc - слоисто-кучевые, Ns - слоисто-дождевые, Cu - кучевые, Cb - кучево-дождевые. Подробнее классификацию облаков см. в Атласе облаков (PDF).
T - Температура воздуха - температура, измеренная на высоте 2 м над землей.
Td - Температура точки росы - температура, при понижении до которой содержащийся в воздухе водяной пар достигнет насыщения.
f - Относительная влажность воздуха - влажноcть воздуха, измеренная на высоте 2 м над землей.
Te - Эффективная температура - температура, которую ощущает одетый по сезону человек в тени. Характеристика душности погоды. При расчете учитывается влияние влажности воздуха и скорости ветра на теплоощущения человека.
Tes - Эффективная температура на солнце - температура, которую ощущает человек, с поправкой на солнечный нагрев. Характеристика знойности погоды. Зависит от высоты солнца над горизонтом, облачности и скорости ветра. Ночью, в пасмурную погоду, а также при ветре 12 м/с и более поправка равна нулю.
P - Атмосферное давление - приведенное к уровню моря атмосферное давление.
Po - Атмосферное давление - измеренное на уровне метеостанции атмосферное давление.
Tmin - Минимальная температура - минимум температуры воздуха на высоте 2 м над землей.
Tmax - Максимальная температура - максимум температуры воздуха на высоте 2 м над землей.
R - Количество осадков - Количество выпавших осадков за период времени, мм. При наведении курсора мыши на число - период времени, за который выпало указанное количество осадков.
R24 - Количество осадков - Количество выпавших осадков за 24 часа, мм.
S - Снежный покров - Высота снежного покрова, см. При наведении курсора мыши на число - состояние снежного покрова и степень покрытия местности в баллах.